This is the latest recevied weather packets stored in our database for station/object KJ7HSW. If no packets are shown the sender has not sent any weather packets the latest 10 day(s).
| Time | Temp. | Humidity | Pressure | Rain* | Wind** | Luminosity | Snow |
|---|---|---|---|---|---|---|---|
| 1777990998 | 11.11° C | 87% | 1014.5 hPa | 0 mm | - | 41 W/m² | - |
| 1777990695 | 10.56° C | 88% | 1014.2 hPa | 0 mm | - | 39 W/m² | - |
| 1777990392 | 10.56° C | 89% | 1014.2 hPa | 0 mm | - | 38 W/m² | - |
| 1777989785 | 10° C | 92% | 1014.2 hPa | 0 mm | - | 35 W/m² | - |
| 1777989482 | 9.44° C | 92% | 1014.4 hPa | 0 mm | - | 33 W/m² | - |
| 1777989178 | 9.44° C | 92% | 1014.2 hPa | 0 mm | - | 31 W/m² | - |
| 1777988874 | 9.44° C | 93% | 1014.1 hPa | 0 mm | - | 30 W/m² | - |
| 1777988572 | 9.44° C | 93% | 1013.9 hPa | 0 mm | - | 29 W/m² | - |
| 1777988268 | 9.44° C | 92% | 1014 hPa | 0 mm | - | 27 W/m² | - |
| 1777987965 | 9.44° C | 93% | 1014 hPa | 0 mm | - | 25 W/m² | - |
| 1777987660 | 8.89° C | 94% | 1014.1 hPa | 0 mm | - | 27 W/m² | - |
| 1777987358 | 8.89° C | 94% | 1014 hPa | 0 mm | - | 21 W/m² | - |
| 1777987055 | 8.89° C | 94% | 1013.8 hPa | 0 mm | - | 18 W/m² | - |
| 1777986752 | 8.89° C | 94% | 1013.8 hPa | 0 mm | - | 16 W/m² | - |
| 1777986450 | 8.89° C | 94% | 1013.7 hPa | 0 mm | - | 13 W/m² | - |
| 1777986149 | 8.89° C | 94% | 1013.8 hPa | 0 mm | - | 11 W/m² | - |
| 1777985845 | 8.89° C | 94% | 1013.8 hPa | 0 mm | - | 9 W/m² | - |
| 1777985542 | 8.89° C | 94% | 1013.7 hPa | 0 mm | - | 7 W/m² | - |
| 1777985239 | 8.89° C | 93% | 1013.5 hPa | 0 mm | - | 4 W/m² | - |
| 1777984936 | 8.89° C | 93% | 1013.3 hPa | 0 mm | - | 3 W/m² | - |
| 1777984631 | 8.89° C | 93% | 1013.5 hPa | 0 mm | - | 2 W/m² | - |
| 1777984329 | 8.89° C | 93% | 1013.2 hPa | 0 mm | - | 1 W/m² | - |
| 1777984025 | 8.89° C | 93% | 1013.3 hPa | 0 mm | - | 0 W/m² | - |
| 1777983722 | 8.89° C | 93% | 1013.2 hPa | 0 mm | - | 0 W/m² | - |
| 1777983419 | 8.89° C | 94% | 1013.2 hPa | 0 mm | - | 0 W/m² | - |
* Rain latest hour (hover to see other rain measurements)
** Current wind speed in m/s (hover to see current wind gust speed)